Вернуться в каталог

KUIPER-00546

АктивенСвязьLEO
NORAD 69614·PAYLOAD·🇺🇸 United States

Запущен Jun 17, 2026 с Guiana Space Centre

Loading…

Ближайшие Пролёты (ближайшие 24 часа)

TLE

СвежийSource: CelesTrak SupGP

Эпоха: Sep 14, 2026, 21:54 UTC

1 69614C 26140Y   26257.91251157 -.00739460  00000+0 -78109-1 0  2575
2 69614  51.8974 329.1032 0020137 109.6159 171.5508 14.89351016    12

Отслеживайте KUIPER-00546 в реальном времени с AllMySat

Download on the App Store